sat.trackr.live / text

‹ back to catalog

STARLINK-36893

NORAD 68112 · 2026-044M

PAYLOAD ACTIVE UNKNOWN

§ Identity

Operator
Country
US
Launch date
2026-03-08
Launch site
AFWTR
Launch vehicle
Mass (kg)
RCS (m²)

Purposes: comms

External: N2YO · Heavens-Above · Gunter

§ Orbital elements

Epoch: 2026-09-19T07:15:54.640800Z

Period
93.91 min
Inclination
97.2845°
Eccentricity
0.0001362
Mean motion
15.33457055 rev/d
Perigee alt
464.6 km
Apogee alt
466.4 km
Semi-major
6,843.6 km
B*
4.7375e-4
RAAN
221.2617°
Arg perigee
93.7619°
Mean anomaly
266.3779°
Rev number
3,125

§ Raw data

STARLINK-368931 68112U 26044M   26262.30271575  .00015256  00000+0  47375-3 0  99992 68112  97.2845 221.2617 0001362  93.7619 266.3779 15.33457055 31252

JSON: /api/v1/satellites/68112 · /tle

For live sub-satellite position, see the globe view (requires WebGL).

§ Visibility from observer

Set your observer location to see the next 7 days of passes ≥ 10°. The values pass through the URL so the page stays shareable.

No JS? Fill the form by hand. The geolocation button needs JavaScript.